Погода в Амнатчарене

Таиланд     15°48′34″N   104°27′30″E
В апреле 2022 года жителям России запретили посещать сайт meteo.paraplan.net по решению Генеральной прокуратуры. Аудитория сайта уменьшилась в 10 раз. Владельцы сайта не видят смысла в поддержке погодного сервера в таких условиях. Сайт будет закрыт в октябре.
темп.,
°C
ветер,
м/с
пор.,
м/с
влажн.,
%
обл.,
%
осадки,
мм/ч
давл.,
гПа
погр.,
м
3 октября, пн
пн301:00+24всв2291100 0.6 100932
04:00+24всв2495100 0.7 1008139
07:00+24всв3494100 0.8 1010227
10:00+29вюв457347 0.9 1010979
13:00+30вюв3466100 2.1 10081263
16:00+29в237034 3.0 1006510
19:00+26в1184100 6.6 100811
22:00+24св479120 2.5 1011156
4 октября, вт
вт401:00+23св39937 5.3 1010275
04:00+22всв499654 1.7 1010290
07:00+23св1197100 7.2 101282
10:00+26св228388 0.1 1013531
13:00+30ссв3366100 0.1 10101160
16:00+30св3466100 0.0 10081028
19:00+27ссв227785 0.1 101015
22:00+25ссв378272 0.0 1012196
5 октября, ср
ср501:00+24ссв398780 0.3 1011327
04:00+23св3109254 0.6 1010289
07:00+24всв3109079 0.7 1012381
10:00+29всв55706 0.0 1013803
13:00+31св446313 0.0 10101265
16:00+30св456817 0.9 1008897
19:00+26св368297 2.1 1010106
22:00+25св4988100 0.0 1011327
6 октября, чт
чт601:00+23св379275 0.0 1010209
04:00+22всв379587 1.4 1010206
07:00+23всв259697 7.2 1012188
10:00+24всв129092 4.1 1013225
13:00+27с227829 4.1 1010538
16:00+28ссв337698 0.3 1008600
19:00+25ссв128283 0.3 101012
22:00+24св378791 0.0 1012177
7 октября, пт
пт701:00+23св498899 0.0 1011296
04:00+22в379795 3.3 1010270
07:00+23ююв279583 6.2 1013448
10:00+28ююв227456 0.0 1013907
13:00+30св226290 0.1 10091399
16:00+29ссв237384 0.4 1008302
19:00+26св227998 0.4 101012
22:00+25св338382 0.0 101251